Regional Weather Roundup
Issued by NWS Upton, NY

Current Version | Previous Version | Text Only | Print | Product List | Glossary On
Versions: 1 2 3 4 5 6 7 8 9 10 11 12 13 14 15 16 17 18 19 20 21 22 23 24 25 26 27
000
ASUS41 KOKX 190305
RWROKX

Regional Weather Roundup
National Weather Service New York NY
1100 PM EDT WED APR 18 2018

Note: "FAIR" indicates few or no clouds below 12,000 feet with no
significant weather and/or obstructions to visibility.

NYZ071-072-176-178-NJZ106-104-190400-
New York City Metro Area

CITY           SKY/WX    TMP DP  RH WIND       PRES   REMARKS
Central Park   FAIR      49  30  48 CALM      29.80F
Bronx Bot Gard   N/A     45  30  57 NE1       29.77F
Bronx Lehman C   N/A     46  30  53 NE5         N/A
LaGuardia Arpt FAIR      50  29  44 MISG      29.77F
Queens College   N/A     50  30  46 S5          N/A
Kennedy Intl   MOCLDY    46  38  73 S7        29.79F
Breezy Point     N/A     45 N/A N/A S2          N/A
Brooklyn Coll    N/A     50  30  46 S3          N/A
Staten Island    N/A     50  32  50 SW2         N/A
Newark/Liberty MOCLDY    50  31  48 SW6       29.78F
Teterboro      MOCLDY    48  29  47 CALM      29.77F
$$

NYZ177-179-078>081-190400-
Long Island New York

CITY           SKY/WX    TMP DP  RH WIND       PRES   REMARKS
Jones Beach      N/A     45 N/A N/A SW5         N/A
Wantagh          N/A     45  41  87 S3          N/A
Hempstead        N/A     46  37  71 S1        29.81F
Matinecock Pt    N/A     46 N/A N/A E3          N/A
Farmingdale    FAIR      42  36  79 NE5       29.79F
MacArthur/ISP  FAIR      42  38  85 SE3       29.79F
Stony Brook      N/A     43  36  75 SW1         N/A
Shirley        FAIR      42  40  92 S3        29.80F
Mt Sinai Harb    N/A    N/A N/A N/A S2          N/A
Westhampton    FAIR      41  36  82 CALM      29.81F
East Hampton   FAIR      40  37  86 SW5       29.80F
Southold         N/A     41  36  81 SW6         N/A
Montauk          N/A     45  36  70 SW6       29.80S
$$

NYZ052-065-067-190400-
Hudson Valley

CITY           SKY/WX    TMP DP  RH WIND       PRES   REMARKS
White Plains   FAIR      39  30  70 NW3       29.77F
Larchmont Harb   N/A     45 N/A N/A MISG        N/A
Croton On Huds   N/A     41 N/A N/A CALM        N/A
Somers           N/A     39  28  65 S1          N/A
Brewster         N/A     36  28  75 S2          N/A
Newburgh       CLEAR     36  28  75 CALM      29.78F
Montgomery     FAIR      32  27  81 SW3       29.76F
Otisville        N/A     32  32 100 S1          N/A
Warwick          N/A     32  32 100 SE2         N/A
Suffern          N/A     39  28  65 E1          N/A
Poughkeepsie   FAIR      35  28  75 CALM      29.77F
Albany         CLOUDY    40  28  62 NW6       29.78F
$$

NJZ001-105-106-008-010-013-015-019>022-104-190400-
New Jersey

CITY           SKY/WX    TMP DP  RH WIND       PRES   REMARKS
Newark/Liberty MOCLDY    50  31  48 SW6       29.78F
Teterboro      MOCLDY    48  29  47 CALM      29.77F
Caldwell       MOCLDY    43  31  62 CALM      29.78F
Somerville     CLOUDY    42  34  73 CALM      29.76F
Linden         CLOUDY    50  29  44 CALM      29.78F
Perth Amboy      N/A     46 N/A N/A SE3         N/A
Sussex         FAIR      35  29  78 CALM      29.77F
Andover          N/A     39  35  86 CALM      29.76F
Trenton        CLOUDY    48  34  58 CALM      29.76F
Millville      CLOUDY    48  41  76 SE5       29.76F
Atlantic City  CLOUDY    49  42  77 S9        29.77F
Wrightstown    CLOUDY    46  36  70 SE6       29.73F
Toms River     CLOUDY    44  37  76 CALM      29.79F
Belmar         CLOUDY    48  33  56 CALM      29.80F
$$

PAZ047>061-062-071-190400-
Eastern Pennsylvania

CITY           SKY/WX    TMP DP  RH WIND       PRES   REMARKS
Philadelphia   CLOUDY    51  33  50 E5        29.76F
Allentown      CLOUDY    47  34  60 NE6       29.74F
Scranton       CLOUDY    40  30  67 NE3       29.75F
$$

CTZ002-004>006-009-010-012-RIZ004-006-007-MAZ004-011-015-190400-
Southern New England

 In CT

CITY           SKY/WX    TMP DP  RH WIND       PRES   REMARKS
Bradley Intl   FAIR      41  28  60 W3        29.77F
Hartford       FAIR      45  29  53 CALM      29.78S
Danbury        FAIR      35  29  78 SW3       29.78F
Wtrbury/Oxford FAIR      37  27  67 CALM      29.78S
Norwalk Harbor   N/A     43 N/A N/A SE3         N/A
Bridgeport     FAIR      39  29  67 S6        29.79S WCI  35
Meriden        FAIR      39  30  70 CALM      29.78F
New Haven      FAIR      42  32  67 CALM      29.79S
Chester        FAIR      43  27  52 CALM      29.78S
Groton         FAIR      43  38  82 SW9       29.78S
Willimantic    FAIR      43  30  60 CALM      29.78S

 In RI

CITY           SKY/WX    TMP DP  RH WIND       PRES   REMARKS
Providence     FAIR      46  31  55 NW6       29.78R
Block Island   FAIR      42  38  85 SW16      29.80R
Westerly       FAIR      45  38  76 SW8       29.79R

In MA

CITY           SKY/WX    TMP DP  RH WIND       PRES   REMARKS
Boston         FAIR      45  29  53 W10       29.75S
Worcester      FAIR      37  27  67 W9        29.73F WCI  30
Westfield      FAIR      42  29  59 SW5       29.77S
Provincetown   FAIR      44  34  67 W10       29.75F
Nantucket      FAIR      42  38  85 W12       29.78S
$$

ANZ330-335-338-340-345-350-353-355-190400-
Coastal Marine Observations


STATION/POSITION TIME  SKY/WX   TEMP    WIND        PRES    VSBY  WAVE
                                AIR SEA DIR/SP/G                  HT/PER
                 (UTC)          (F)     (DEG/KT/KT) (MB)    (MI)  (FT/S)
NY Harb Entrance 0250            45 45  180/  8/ 10 1008.7          3/ 6
20 S Fire Island 0250            44 43  230/  8/ 10 1009.1          3/ 5
23 SSW Montauk P 0250            43 42  220/ 12/ 14 1009.3          4/ 5
15 E Barnegat Li 0230               44                N/A           3/ 8
Hudson Canyon    0250            45 45  210/ 12/ 14 1009.4          4/ 5
Kings Point      0224            47 45   70/  5/  7 1009.8
Execution Rocks  NOT AVBL
Western LI Sound NOT AVBL
Central LI Sound 0245            43     230/  8/ 12   N/A           1
Robbins Reef     0236            50     270/  4/  5 1009.3
$$


>>>>>>>>>>>>>>>>>>>>>>>>>>>> KEY <<<<<<<<<<<<<<<<<<<<<<<<<<<
>                                                          <
>     SKY/WX - Sky Condition/Present Weather               <
>     TMP    - Temperature in Fahrenheit                   <
>     DP     - Dew Point in Fahrenheit                     <
>     RH     - Relative Humidity in Percent                <
>     WIND   - Direction (from) and Speed in MPH           <
>     PRES   - Mean Sea Level Pressure (inches of Hg)      <
>     WCI    - Wind Chill Index                            <
>     VSB    - Visibility in Miles                         <
>     HX     - Heat Index                                  <
>     TC     - Temperature in Celsius                      <
>     VRB    - Varibale Wind Direction                     <
>                                                          <
>>>>>>>>>>>>>>>>>>>>>>>>>>>> KEY <<<<<<<<<<<<<<<<<<<<<<<<<<<




USA.gov is the U.S. government's official web portal to all federal, state and local government web resources and services.